Home   Weather   Casper   Past weeks

Flag for USA Past Weather in Casper, Wyoming, USA — Yesterday and Last 2 Weeks

Now
36 °F

Overcast.


Feels Like: 36 °F
Forecast: 34 / 46 °F
Wind: No wind

Location: Natrona County International Airport

Current Time: Apr 27, 2017 at 3:11:11 am

Latest Report: Apr 27, 2017 at 1:53 am


Visibility: 10 mi

Pressure: 29.52 "Hg (24.30 "Hg at 1569m altitude)

Humidity: 89%

Dew Point: 33 °F

Location of CasperLocation

Past Weather in Casper — Graph

°F

Casper Temperature Yesterday

Maximum temperature yesterday: 54 °F (at 4:53 pm)
Minimum temperature yesterday: 25 °F (at 1:53 am)
Average temperature yesterday: 41 °F

High & Low Weather Summary for the Past Weeks

 TemperatureHumidityPressure
High77 °F (Apr 13, 1:53 pm)100% (Apr 18, 10:21 pm)30.27 "Hg (Apr 18, 10:21 pm)
Low22 °F (Apr 16, 5:53 am)10% (Apr 13, 3:53 pm)29.39 "Hg (Apr 24, 10:53 pm)
Average46 °F61%29.86 "Hg
* Reported Apr 12 1:53 am — Apr 27 1:53 am, Casper, Weather by CustomWeather, © 2017

Note: Actual official high and low records may vary slightly from our data, if they occured in-between our weather recording intervals... More about our weather records

Advertising

Casper Weather History for the Previous 24 Hours

Scroll right to see more
 ConditionsComfort  
Time TempWeatherWind HumidityBarometerVisibility
1:53 am
Thu, Apr 27
36 °FOvercast.No wind89%29.52 "Hg10 mi
12:53 am35 °FClear.6 mph92%29.54 "Hg10 mi
11:53 pm
Wed, Apr 26
37 °FClear.5 mph89%29.55 "Hg10 mi
10:53 pm35 °FClear.3 mph96%29.59 "Hg10 mi
9:53 pm39 °FClear.6 mph93%29.61 "Hg10 mi
8:53 pm40 °FPassing clouds.9 mph83%29.62 "Hg10 mi
7:53 pm40 °FRain. Mostly cloudy.12 mph77%29.66 "Hg6 mi
6:53 pm47 °FPartly sunny.13 mph54%29.61 "Hg10 mi
5:53 pm52 °FMostly cloudy.N/A38%29.59 "Hg10 mi
4:53 pm54 °FOvercast.13 mph40%29.59 "Hg10 mi
3:53 pm51 °FMostly cloudy.8 mph42%29.62 "Hg10 mi
3:05 pm49 °FPartly sunny.9 mph48%29.67 "Hg10 mi
2:25 pm53 °FScattered clouds.12 mph38%29.67 "Hg10 mi
1:53 pm51 °FScattered clouds.9 mph42%29.67 "Hg10 mi
12:53 pm51 °FPassing clouds.13 mph41%29.70 "Hg10 mi
11:53 am50 °FBroken clouds.12 mph43%29.72 "Hg10 mi
10:53 am49 °FScattered clouds.8 mph55%29.75 "Hg10 mi
9:53 am44 °FSunny.10 mph68%29.78 "Hg10 mi
8:53 am41 °FSunny.14 mph70%29.81 "Hg10 mi
7:53 am37 °FSunny.13 mph76%29.83 "Hg10 mi
6:53 am32 °FSunny.8 mph85%29.85 "Hg10 mi
5:53 am31 °FClear.13 mph89%29.85 "Hg10 mi
4:53 am31 °FClear.16 mph89%29.85 "Hg10 mi
3:53 am30 °FClear.13 mph89%29.86 "Hg10 mi
Weather by CustomWeather, © 2017

See weather overviewHow to use our weather pages